Weather History for Huntington, WV

Change the Weather History Date:

Sunday, January 27, 2013

  Actual Average Record
Temperature  
Mean Temperature 30 °F 34 °F  
Max Temperature 41 °F 43 °F 71 °F (1999)
Min Temperature 19 °F 25 °F -5 °F (1936)
Degree Days  
Heating Degree Days 35 31  
Month to date heating degree days 822 843  
Since 1 July heating degree days 2564 2598  
Cooling Degree Days 0 0  
Month to date cooling degree days 0 0  
Year to date cooling degree days 0 0  
Moisture  
Dew Point 22 °F    
Average Humidity 69    
Maximum Humidity 92    
Minimum Humidity 46    
Precipitation  
Precipitation 0.10 in 0.09 in 1.21 in (2009)
Month to date precipitation 2.13 2.56  
Year to date precipitation 2.13 2.56  
Snow  
Snow 0.00 in - - ()
Month to date snowfall 0.9  
Since 1 September snowfall 4.4  
Snow Depth -    
Sea Level Pressure  
Sea Level Pressure 30.40 in    
Wind  
Wind Speed 4 mph (ENE)    
Max Wind Speed 7 mph    
Max Gust Speed 12 mph    
Visibility 8 miles    
Events Rain    
T = Trace of Precipitation, MM = Missing Value Source: NWS Daily Summary

Daily Weather History Graph

Daily Weather History Graph

Search for Another Location

Airport:

Trip Planner

Search our weather history database for the weather conditions in past years. The results will help you decide how hot, cold, wet, or windy it might be!

Date:

Astronomy

Jan. 27, 2013 Rise Set
Actual Time 7:39 AM EST 5:47 PM EST
Civil Twilight 7:11 AM EST 6:15 PM EST
Nautical Twilight 6:39 AM EST 6:47 PM EST
Astronomical Twilight 6:07 AM EST 7:18 PM EST
Moon 6:38 PM EST (1/27) 7:32 AM EST (1/27)
Length of Visible Light 11h 04m
Length of Day
10h 08m
Full, 100% of the Moon is Illuminated
Jan 27
Full
Feb 3
Last Quarter
Feb 10
New
Feb 17
First Quarter
Feb 25
Full

Hourly Weather History & Observations

Time (EST) Temp. Windchill Dew Point Humidity Pressure Visibility Wind Dir Wind Speed Gust Speed Precip Events Conditions
12:51 AM 25.0 °F 19.3 °F 17.1 °F 72% 30.46 in 10.0 mi NE 4.6 mph - N/A   Clear
1:51 AM 24.1 °F 19.7 °F 17.1 °F 75% 30.45 in 8.0 mi ENE 3.5 mph - N/A   Clear
2:51 AM 21.9 °F 15.7 °F 18.0 °F 85% 30.46 in 7.0 mi North 4.6 mph - N/A   Scattered Clouds
3:02 AM 23.0 °F 14.7 °F 19.4 °F 86% 30.44 in 7.0 mi North 6.9 mph - N/A   Mostly Cloudy
3:46 AM 21.2 °F - 17.6 °F 86% 30.43 in 6.0 mi Calm Calm - N/A   Scattered Clouds
3:51 AM 21.9 °F 17.2 °F 19.0 °F 89% 30.46 in 6.0 mi ENE 3.5 mph - N/A   Partly Cloudy
4:51 AM 21.9 °F 17.2 °F 18.0 °F 85% 30.44 in 6.0 mi ENE 3.5 mph - N/A   Clear
5:51 AM 19.0 °F 12.3 °F 17.1 °F 92% 30.46 in 7.0 mi North 4.6 mph - N/A   Clear
6:51 AM 19.9 °F 14.9 °F 17.1 °F 89% 30.47 in 7.0 mi NE 3.5 mph - N/A   Clear
7:51 AM 19.9 °F 14.9 °F 17.1 °F 89% 30.48 in 7.0 mi East 3.5 mph - N/A   Clear
8:51 AM 23.0 °F - 19.9 °F 88% 30.47 in 7.0 mi Calm Calm - N/A   Clear
9:51 AM 28.0 °F 21.7 °F 21.0 °F 75% 30.48 in 6.0 mi East 5.8 mph - N/A   Haze
10:51 AM 32.0 °F - 21.9 °F 66% 30.47 in 6.0 mi Calm Calm - N/A   Haze
11:51 AM 36.0 °F 31.1 °F 21.9 °F 57% 30.45 in 10.0 mi ENE 5.8 mph - N/A   Clear
12:51 PM 37.4 °F 33.8 °F 23.0 °F 56% 30.40 in 8.0 mi North 4.6 mph - N/A   Clear
1:51 PM 39.0 °F 35.7 °F 21.9 °F 50% 30.40 in 10.0 mi NNW 4.6 mph - N/A   Partly Cloudy
2:51 PM 39.9 °F 36.7 °F 23.0 °F 51% 30.39 in 10.0 mi NNE 4.6 mph - N/A   Clear
3:51 PM 41.0 °F 38.0 °F 23.0 °F 49% 30.38 in 10.0 mi NE 4.6 mph - N/A   Scattered Clouds
4:51 PM 39.9 °F 36.7 °F 21.9 °F 49% 30.36 in 10.0 mi ESE 4.6 mph - N/A   Partly Cloudy
5:51 PM 39.0 °F 36.8 °F 23.0 °F 53% 30.35 in 10.0 mi East 3.5 mph - N/A   Overcast
6:51 PM 37.9 °F 34.4 °F 23.0 °F 55% 30.34 in 10.0 mi East 4.6 mph - N/A   Overcast
7:51 PM 37.9 °F 35.5 °F 23.0 °F 55% 30.32 in 10.0 mi ESE 3.5 mph - N/A   Overcast
8:51 PM 37.9 °F 35.5 °F 24.1 °F 57% 30.31 in 10.0 mi East 3.5 mph - N/A   Overcast
9:51 PM 37.0 °F 34.5 °F 28.0 °F 70% 30.30 in 10.0 mi East 3.5 mph - 0.00 in Rain Light Rain
10:51 PM 35.1 °F 32.2 °F 30.0 °F 82% 30.29 in 6.0 mi ESE 3.5 mph - 0.02 in Rain Light Rain
11:38 PM 35.6 °F - 33.8 °F 93% 30.26 in 4.0 mi Calm Calm - 0.04 in Rain Rain
11:51 PM 35.1 °F 32.2 °F 32.0 °F 89% 30.27 in 3.0 mi East 3.5 mph - 0.07 in Rain Rain